This is the latest recevied weather packets stored in our database for station/object GOLDWX. If no packets are shown the sender has not sent any weather packets the latest 10 day(s).
| Time | Temp. | Humidity | Pressure | Rain* | Wind** | Luminosity | Snow |
|---|---|---|---|---|---|---|---|
| 1777337564 | 10.56° C | 50% | 1013.6 hPa | 0 mm | - | - | - |
| 1777336962 | 11.11° C | 53% | 1013.4 hPa | 0 mm | - | - | - |
| 1777336661 | 11.11° C | 52% | 1013.5 hPa | 0 mm | - | - | - |
| 1777336060 | 11.11° C | 54% | 1013.5 hPa | 0 mm | - | - | - |
| 1777335759 | 11.11° C | 55% | 1013.5 hPa | 0 mm | - | - | - |
| 1777335157 | 11.11° C | 57% | 1013.4 hPa | 0 mm | - | - | - |
| 1777334856 | 11.11° C | 56% | 1013.4 hPa | 0 mm | - | - | - |
| 1777334255 | 10.56° C | 57% | 1013.4 hPa | 0 mm | - | - | - |
| 1777333954 | 10.56° C | 59% | 1013.3 hPa | 0.76 mm | - | - | - |
| 1777333352 | 10.56° C | 60% | 1013.3 hPa | 0.76 mm | - | - | - |
| 1777333052 | 10° C | 60% | 1013.3 hPa | 0.76 mm | - | - | - |
| 1777332450 | 10° C | 62% | 1013.4 hPa | 0.76 mm | - | - | - |
| 1777332149 | 10° C | 62% | 1013.3 hPa | 0.76 mm | - | - | - |
| 1777331547 | 10° C | 64% | 1013.4 hPa | 0.76 mm | - | - | - |
| 1777331247 | 9.44° C | 68% | 1013.4 hPa | 0.76 mm | - | - | - |
| 1777330643 | 8.89° C | 71% | 1013.6 hPa | 0.76 mm | - | - | - |
| 1777330342 | 8.33° C | 72% | 1013.6 hPa | 0.76 mm | - | - | - |
| 1777329740 | 7.22° C | 72% | 1013.7 hPa | 0.76 mm | - | - | - |
| 1777329440 | 7.22° C | 72% | 1013.8 hPa | 0.76 mm | - | - | - |
| 1777328838 | 7.22° C | 71% | 1013.9 hPa | 0.76 mm | - | - | - |
| 1777328537 | 7.22° C | 71% | 1013.9 hPa | 0.76 mm | - | - | - |
| 1777327935 | 7.78° C | 71% | 1013.9 hPa | 0.76 mm | - | - | - |
| 1777327634 | 7.78° C | 71% | 1014 hPa | 0.76 mm | - | - | - |
| 1777327033 | 8.33° C | 63% | 1014.1 hPa | 0.76 mm | - | - | - |
| 1777326732 | 8.33° C | 62% | 1013.8 hPa | 0.76 mm | - | - | - |
* Rain since midnight (hover to see other rain measurements)
** Current wind speed in m/s (hover to see current wind gust speed)